C/2024 G7 ( ATLAS )

Japanese version
Home page
Updated on May 2, 2025

---------------------------------------------------------------------

* Profile

Discovery Date April 3, 2024
Magnitude 19.4 mag
Discoverer Asteroid Terrestrial-Impact Last Alert System (ATLAS) search program

* Pictures

* Orbital Elements

Epoch 2025 May 5.0 TT = JDT 2460800.5
T 2025 Feb. 10.12824 TT                                 Payne
q   6.0276768            (2000.0)            P               Q
z  -0.0003182      Peri.  289.65759     -0.19973176     -0.96748464
 +/-0.0000060      Node   191.96101     -0.34373750     -0.07912306
e   1.0019181      Incl.  131.51605     -0.91757929     +0.24023534
From 79 observations 2024 Apr. 3-2025 Apr. 27, mean residual 0".5.

* Magnitudes Graph

        m1 = 7.0 + 5 log d + 10.0 log r

---------------------------------------------------------------------

The orbital elements are published on M.P.E.C. 2025-J08.
The magnitudes graphs are made with Comet for Windows.

---------------------------------------------------------------------

Copyright(C) Seiichi Yoshida (comet@aerith.net). All rights reserved.